Weather in Elbrusskiy

Russia / Karachay-Cherkess Republic     43°33′23″N   42°07′59″E
temp.,
°C
wind,
m/s
gust,
m/s
humid.,
%
clouds,
%
prec.,
mm/h
press.,
hPa
HPBL,
m
13 june, sun
sun1300:00+6sse2188100 0.0 101613
03:00+5s1187100 0.0 101512
06:00+7sse0186100 0.0 101458
09:00+9nnw2188100 0.3 1014491
12:00+11nnw2179100 1.6 1013810
15:00+11nw2282100 4.6 1013614
18:00+8ne019253 3.2 1015191
21:00+6sse11928 3.3 101711
14 june, mon
mon1400:00+5sse22880 0.0 101626
03:00+4sse32820 0.0 101622
06:00+7sse22770 0.0 101539
09:00+14nnw13460 0.0 10111029
12:00+18nw26352 0.1 10102568
15:00+18nnw254340 0.5 10101639
18:00+14n13730 1.5 1012377
21:00+8sse43765 1.9 101432
15 june, tue
tue1500:00+7sse43735 0.1 101337
03:00+7sse447769 0.1 101253
06:00+11s346573 0.0 101164
09:00+17ssw47393 0.0 10092323
12:00+19sw47345 0.0 10102646
15:00+19nnw24435 0.2 10101426
18:00+15nnw13680 1.1 1012323
21:00+9sse32682 1.4 101422
16 june, wed
wed1600:00+8sse33600 0.0 101323
03:00+9sse33660 0.0 101232
06:00+12sse33670 0.0 101060
09:00+20wnw15390 0.0 10071682
12:00+20nnw35460 0.1 10081424
15:00+18nnw33640 1.6 1009942
18:00+15nnw238243 1.3 1012550
21:00+11se119235 1.4 101442
17 june, thu
thu1700:00+10se118527 0.0 101346
03:00+9se118821 0.0 101328
06:00+11ne018218 0.0 101284
09:00+16nnw236821 0.0 1009832
12:00+18nw33640 1.3 10091023
15:00+15w34768 5.1 1012784
18:00+12nw249147 3.1 1014271
21:00+9s129582 6.0 101792